Location: Wildcat Hills Observatory
(41.6350°N, 103.6812°W)
Time: 19:44:16
(UTC-06:00)

ATLAS 2AS CENTAUR R/B - Pass Details

Date: 23 June 2018
Orbit: 914 x 1298 km, 63.7° (Epoch: 18 September)

Event Time Altitude Azimuth Distance (km) Brightness Sun altitude
Rises 22:16:11 0° 231° (SW) 4,122 5.8 -15.0°
Reaches altitude 10° 22:18:59 10° 236° (SW) 3,202 5.2 -15.4°
Maximum altitude 22:26:37 54° 312° (NW) 1,531 3.9 -16.2°
Drops below altitude 10° 22:34:33 10° 29° (NNE) 3,316 5.6 -17.1°
Sets 22:37:30 0° 34° (NE) 4,278 6.2 -17.4°
